Location: Dennis Manor
(64.8292°N, 147.5397°W)
Time: 09:24:07
(UTC+00:00)

Envisat - Pass Details

Date: 29 October 2020
Orbit: 764 x 766 km, 98.1° (Epoch: 05 December)

Event Time Altitude Azimuth Distance (km) Brightness Sun altitude
Rises 14:01:03 0° 19° (NNE) 3,251 6.7 -22.2°
Reaches altitude 10° 14:04:36 10° 45° (NE) 2,318 6.3 -21.8°
Maximum altitude 14:07:11 14° 76° (ENE) 2,056 6.3 -21.6°
Drops below altitude 10° 14:09:46 10° 107° (ESE) 2,311 6.3 -21.3°
Sets 14:13:18 0° 132° (SE) 3,231 6.7 -20.9°
